Location: Erskine
(52.3216°N, 112.8806°W)
Time: 22:28:48
(UTC+00:00)

AAUSAT CUBESAT 2 - Pass Details

Date: 12 December 2023
Orbit: 526 x 534 km, 97.6° (Epoch: 27 February)

Event Time Altitude Azimuth Distance (km) Brightness Sun altitude
Rises 00:13:24 0° 211° (SSW) 2,664 ? -7.9°
Maximum altitude 00:18:30 15° 271° (W) 1,500 ? -8.6°
Drops below altitude 10° 00:20:43 10° 306° (NW) 1,782 ? -8.9°
Sets 00:23:39 0° 331° (NNW) 2,677 ? -9.3°
